Hazlehurst, GA

4:18 AM EDT on October 23, 2019 (GMT -0400)
Hazlehurst

Weather History for KAZE - August, 2019

Change the Weather History Date:

Saturday, August 10, 2019

  Actual Average Record
Temperature  
Mean Temperature 90 °F -  
Max Temperature 102 °F 96 °F 102 °F (2019)
Min Temperature 79 °F 70 °F 72 °F (2018)
Cooling Degree Days 25    
Growing Degree Days 40 (Base 50)    
Moisture  
Dew Point 71 °F    
Average Humidity 61    
Maximum Humidity 81    
Minimum Humidity 29    
Precipitation  
Precipitation 0.00 in - - ()
Sea Level Pressure  
Sea Level Pressure 29.91 in    
Wind  
Wind Speed 1 mph (WSW)    
Max Wind Speed 9 mph    
Max Gust Speed -    
Visibility 10 miles    
Events Thunderstorm    
Averages and records for this station are not official NWS values.
T = Trace of Precipitation, MM = Missing Value Source: NWS Daily Summary

Daily Weather History Graph

Daily Weather History Graph

Search for Another Location

Airport or City:

Astronomy

Aug. 10, 2019 Rise Set
Actual Time 6:51 AM EDT 8:19 PM EDT
Civil Twilight 6:25 AM EDT 8:45 PM EDT
Nautical Twilight 5:54 AM EDT 9:16 PM EDT
Astronomical Twilight 5:22 AM EDT 9:49 PM EDT
Moon 4:54 PM EDT (8/10) 2:32 AM EDT (8/10)
Length of Visible Light 14h 19m
Length of Day
13h 27m
Waxing Gibbous, 79% of the Moon is Illuminated
Aug 10
Waxing Gibbous
Aug 15
Full
Aug 23
Last Quarter
Aug 30
New
Sep 5
First Quarter

Hourly Weather History & Observations

Time (EDT) Temp. Heat Index Dew Point Humidity Pressure Visibility Wind Dir Wind Speed Gust Speed Precip Events Conditions
12:10 AM 84.2 °F 89.9 °F 72.0 °F 67% 29.92 in 10.0 mi Calm Calm - N/A   Clear
12:30 AM 83.3 °F 88.4 °F 71.8 °F 68% 29.92 in 10.0 mi Calm Calm - N/A   Clear
12:50 AM 83.5 °F 89.1 °F 72.3 °F 69% 29.92 in 10.0 mi Calm Calm - N/A   Clear
1:10 AM 84.4 °F 90.0 °F 72.0 °F 66% 29.91 in 10.0 mi Calm Calm - N/A   Clear
1:30 AM 84.4 °F 90.3 °F 72.1 °F 67% 29.91 in 10.0 mi Calm Calm - N/A   Clear
1:50 AM 84.2 °F 89.9 °F 72.1 °F 67% 29.91 in 10.0 mi Calm Calm - N/A   Clear
2:10 AM 83.7 °F 89.4 °F 72.5 °F 69% 29.90 in 10.0 mi Calm Calm - N/A   Clear
2:30 AM 83.3 °F 89.0 °F 72.5 °F 70% 29.90 in 10.0 mi Calm Calm - N/A   Clear
2:50 AM 82.2 °F 87.8 °F 73.0 °F 74% 29.90 in 10.0 mi Calm Calm - N/A   Clear
3:10 AM 82.6 °F 88.1 °F 72.9 °F 72% 29.90 in 10.0 mi Calm Calm - N/A   Clear
3:30 AM 82.0 °F 87.4 °F 73.0 °F 74% 29.89 in 10.0 mi Calm Calm - N/A   Clear
3:50 AM 82.4 °F 87.9 °F 72.9 °F 73% 29.89 in 10.0 mi Calm Calm - N/A   Clear
4:10 AM 81.7 °F 86.9 °F 73.0 °F 75% 29.89 in 10.0 mi Calm Calm - N/A   Clear
4:30 AM 81.1 °F 86.2 °F 73.2 °F 77% 29.89 in 10.0 mi Calm Calm - N/A   Clear
4:50 AM 81.1 °F 86.2 °F 73.4 °F 77% 29.89 in 10.0 mi Calm Calm - N/A   Clear
5:10 AM 80.6 °F 85.4 °F 73.4 °F 79% 29.90 in 10.0 mi Calm Calm - N/A   Clear
5:30 AM 80.2 °F 84.7 °F 73.4 °F 80% 29.90 in 10.0 mi Calm Calm - N/A   Clear
5:50 AM 80.1 °F 84.4 °F 73.4 °F 80% 29.90 in 10.0 mi Calm Calm - N/A   Clear
6:10 AM 80.1 °F 84.5 °F 73.6 °F 81% 29.90 in 10.0 mi Calm Calm - N/A   Clear
6:30 AM 79.9 °F - 73.6 °F 81% 29.91 in 10.0 mi Calm Calm - N/A   Clear
6:50 AM 80.1 °F 84.5 °F 73.6 °F 81% 29.92 in 10.0 mi Calm Calm - N/A   Clear
7:10 AM 80.1 °F 84.5 °F 73.8 °F 81% 29.92 in 10.0 mi Calm Calm - N/A   Clear
7:30 AM 80.6 °F 85.5 °F 73.9 °F 80% 29.93 in 10.0 mi Calm Calm - N/A   Clear
7:55 AM 81.9 °F 87.7 °F 74.1 °F 77% 29.94 in 10.0 mi Calm Calm - N/A   Clear
8:10 AM 83.3 °F 90.2 °F 74.3 °F 74% 29.94 in 10.0 mi Calm Calm - N/A   Clear
8:30 AM 84.9 °F 92.9 °F 74.5 °F 71% 29.95 in 10.0 mi West 3.5 mph - N/A   Clear
8:50 AM 85.1 °F 92.9 °F 74.5 °F 70% 29.95 in 10.0 mi Calm Calm - N/A   Clear
9:10 AM 86.2 °F 93.8 °F 73.8 °F 66% 29.95 in 10.0 mi Calm Calm - N/A   Clear
9:30 AM 88.0 °F 96.0 °F 73.6 °F 62% 29.95 in 10.0 mi Calm Calm - N/A   Clear
9:50 AM 88.9 °F 97.1 °F 73.6 °F 60% 29.96 in 10.0 mi Calm Calm - N/A   Clear
10:10 AM 91.0 °F 99.8 °F 73.6 °F 56% 29.96 in 10.0 mi Calm Calm - N/A   Clear
10:30 AM 90.7 °F 99.0 °F 73.0 °F 56% 29.96 in 10.0 mi Calm Calm - N/A   Clear
10:50 AM 91.8 °F 100.9 °F 73.4 °F 55% 29.96 in 10.0 mi WSW 3.5 mph - N/A   Clear
11:10 AM 93.0 °F 101.9 °F 72.9 °F 52% 29.96 in 10.0 mi Calm Calm - N/A   Clear
11:30 AM 95.2 °F 102.3 °F 71.1 °F 45% 29.96 in 10.0 mi West 4.6 mph - N/A   Clear
11:50 AM 95.5 °F 102.4 °F 70.2 °F 44% 29.95 in 10.0 mi WSW 5.8 mph - N/A   Clear
12:10 PM 97.0 °F 104.1 °F 70.3 °F 42% 29.94 in 10.0 mi Calm Calm - N/A   Clear
12:30 PM 96.8 °F 103.1 °F 69.6 °F 41% 29.94 in 10.0 mi WSW 4.6 mph - N/A   Scattered Clouds
12:50 PM 98.8 °F 103.2 °F 67.1 °F 35% 29.93 in 10.0 mi WNW 3.5 mph - N/A   Scattered Clouds
1:15 PM 99.5 °F 103.2 °F 66.0 °F 33% 29.92 in 10.0 mi SW 4.6 mph - N/A   Scattered Clouds
1:30 PM 100.4 °F 103.0 °F 64.0 °F 30% 29.92 in 10.0 mi NNW 9.2 mph - N/A   Scattered Clouds
2:10 PM 99.0 °F 102.3 °F 65.3 °F 33% 29.90 in 10.0 mi NNW 8.1 mph - N/A   Scattered Clouds
2:30 PM 99.7 °F 101.8 °F 63.5 °F 30% 29.89 in 10.0 mi NW 9.2 mph - N/A   Scattered Clouds
3:10 PM 100.2 °F 103.9 °F 65.3 °F 32% 29.86 in 10.0 mi South 5.8 mph - N/A   Clear
3:30 PM 101.7 °F 105.2 °F 64.6 °F 30% 29.85 in 10.0 mi NW 5.8 mph - N/A   Scattered Clouds
3:50 PM 100.4 °F 102.4 °F 63.0 °F 29% 29.84 in 10.0 mi West 3.5 mph - N/A   Scattered Clouds
4:10 PM 99.9 °F 102.7 °F 63.9 °F 31% 29.84 in 10.0 mi WSW 3.5 mph - N/A   Scattered Clouds
4:30 PM 99.0 °F 102.3 °F 64.9 °F 33% 29.84 in 10.0 mi West 4.6 mph - N/A   Scattered Clouds
4:50 PM 97.5 °F 101.4 °F 66.6 °F 36% 29.84 in 10.0 mi WNW 4.6 mph - N/A   Clear
5:10 PM 96.8 °F 100.7 °F 66.6 °F 37% 29.85 in 10.0 mi Calm Calm - N/A   Clear
5:30 PM 92.7 °F 97.7 °F 69.3 °F 46% 29.86 in 10.0 mi ENE 9.2 mph - N/A Thunderstorm Clear
5:50 PM 90.1 °F 94.4 °F 68.7 °F 49% 29.86 in 10.0 mi ENE 8.1 mph - N/A   Scattered Clouds
6:10 PM 89.4 °F 94.0 °F 68.9 °F 51% 29.87 in 10.0 mi ENE 6.9 mph - N/A   Scattered Clouds
6:30 PM 88.2 °F 92.5 °F 68.9 °F 53% 29.88 in 10.0 mi NE 3.5 mph - N/A Thunderstorm Scattered Clouds
6:50 PM 88.7 °F 93.5 °F 69.6 °F 53% 29.88 in 10.0 mi Calm Calm - N/A   Clear
7:10 PM 88.9 °F 93.8 °F 70.0 °F 53% 29.88 in 10.0 mi ENE 4.6 mph - N/A   Clear
7:30 PM 87.6 °F 93.1 °F 70.7 °F 57% 29.89 in 10.0 mi Calm Calm - N/A   Clear
7:50 PM 86.4 °F 92.2 °F 71.2 °F 61% 29.89 in 10.0 mi Calm Calm - N/A   Clear
8:10 PM 86.2 °F 91.8 °F 71.4 °F 61% 29.89 in 10.0 mi Calm Calm - N/A   Clear
8:30 PM 85.1 °F 90.8 °F 71.8 °F 64% 29.89 in 10.0 mi East 3.5 mph - N/A   Clear
8:50 PM 84.2 °F 90.3 °F 72.5 °F 68% 29.89 in 10.0 mi Calm Calm - N/A   Clear
9:10 PM 83.7 °F 89.4 °F 72.5 °F 69% 29.90 in 10.0 mi Calm Calm - N/A   Clear
9:30 PM 82.6 °F 88.6 °F 73.4 °F 74% 29.91 in 10.0 mi Calm Calm - N/A   Clear
9:50 PM 82.2 °F 88.0 °F 73.4 °F 75% 29.91 in 10.0 mi Calm Calm - N/A   Scattered Clouds
10:10 PM 81.9 °F 87.3 °F 73.2 °F 75% 29.92 in 10.0 mi SSE 3.5 mph - N/A   Clear
10:30 PM 81.9 °F 87.0 °F 72.7 °F 74% 29.93 in 10.0 mi South 4.6 mph - N/A   Clear
10:50 PM 81.9 °F 86.8 °F 72.5 °F 73% 29.94 in 10.0 mi South 5.8 mph - N/A Thunderstorm Clear
11:10 PM 82.0 °F 87.2 °F 72.5 °F 73% 29.94 in 10.0 mi South 5.8 mph - N/A   Clear
11:30 PM 82.4 °F 87.7 °F 72.5 °F 72% 29.95 in 10.0 mi SSW 3.5 mph - N/A   Scattered Clouds
11:50 PM 82.0 °F 87.2 °F 72.5 °F 73% 29.95 in 10.0 mi SSW 5.8 mph - N/A   Scattered Clouds